Location: Kuppenheim
(48.8299°N, 8.2568°E)
Time: 14:48:55
(UTC+00:00)

Cosmos 1242 Rocket - Pass Details

Date: 20 June 2021
Orbit: 446 x 483 km, 81.2° (Epoch: 30 July)

Event Time Altitude Azimuth Distance (km) Brightness Sun altitude
Rises 01:53:12 0° 333° (NNW) 2,525 6.6 -10.9°
Reaches altitude 10° 01:55:47 10° 313° (NW) 1,649 5.4 -10.6°
Maximum altitude 01:58:12 17° 271° (W) 1,266 4.4 -10.4°
Enters shadow 01:59:56 13° 238° (WSW) 1,471 4.4 -10.2°
